Showing default

ATS 1, 2608

Orbit data source: Space-Track

ATS 1, 2608 is a payload satellite owned by GSFC (US) in GEO that was launched on Wed, 07 Dec 1966 UTC via an ATLAS SLV-3 AGENA D launch vehicle from the Air Force Eastern Test Range (AFETR). Payload-class satellites include a variety of spacecraft equipped with specific instruments for various scientific and technological missions. These include communications satellites like Starlink; space stations such as the ISS; scientific satellites like the Hubble; Earth observation satellites from companies like Planet Labs, Umbra, and HawkEye 360; GPS; miniature CubeSats for education and research; and military/defense satellites.

Not visible in the next 10 days
Identifier
2608, 1966-110A
Orbit
GEO
Last TLE update
4 hours ago
Origin
Manufacturer
Hughes
Mission
Non-operational Civil Communications
Bus & Motor
HS-306, SR-28-3
Mass
714 kg wet, 266 kg dry
Launch date (UTC)
1966-12-07 (58 years ago)
Launch vehicle
ATLAS SLV-3 AGENA D
Launch site
Air Force Eastern Test Range (AFETR)
Object type
Payload
Rocket body
Debris
Shape & HBR
Cyl + 2 Rod, 2.5 m
Radar Cross Section
2.651 m², Large (>1 m²)

Expand to show TLE details & history

TLE from 4 hours ago
0 ATS 1
1  2608U 66110A   25129.17207403  .00000143  00000-0  00000+0 0  9990
2  2608   3.9615  73.6389 0005530 178.2537  58.8841  1.00351532130732
Epoch: 2025-05-09T04:07Z
Definitive object data (Epoch: 2025-05-09T04:07:47.196Z)
Latitude
-3.31917°
Longitude
21.59092°
Altitude
35,752.267 km
Speed
3.076 km/s
True Right ascension
20h 43m 04s
True Declination
-3° 18' 57"
Sunlit
Object was in daylight at TLE epoch
Visualization TLE readout
Latitude
-3.43838°
Longitude
83.72901°
Altitude
35,776.345 km
Speed
3.075 km/s
Apparent Right ascension
01h 11m 31s
Apparent Declination
-8° 18' 19"
Sunlit
Object is in daylight
Visualization observer readout
Local Sidereal Time
16:24:07
Azimuth
67.002° ENE
Elevation
-36.802°
Doppler factor
1
Orbital elements
Apogee altitude
35,788.623 km
Perigee altitude
35,742.012 km
Semi-major axis
42,143.454 km
Eccentricity
0.000553
Inclination
3.9615°
RAAN
73.6389°
Arg. of periapsis
178.2537°
True anomaly
58.93837°
Mean anomaly
58.8841°
Eccentric anomaly
58.91123°
Mean motion
0.25087 °/min
BSTAR
Unknown
Orbital period
1435.01 mins
Loading historical data...
2608 neighbors
Loading maneuver chart data...
Loading SW <> Apogee altitude chart data...
Loading historical data...
Loading historical data...
Loading historical data...
Loading historical data...
Loading historical data...
Loading historical data...
Loading historical data...
Other satellites on launch #110 in the year 1966 (1966-12-07 UTC)

ATS 1 Visibility forecast

Observer location: undefined°, undefined°

ATS 1 is not visible in the next 10 days
Span
Click to sort rows by Start time (UTC) header in descending order
Start Az.
Max El. time (UTC)
Max El. Az.
Max El.
End time (UTC)
End Az.
|